Time,TemperatureF,DewpointF,PressureIn,WindDirection,WindDirectionDegrees,WindSpeedMPH,WindSpeedGustMPH,Humidity,HourlyPrecipIn,Conditions,Clouds,dailyrainin,SolarRadiationWatts/m^2,SoftwareType,DateUTC
2013-02-26 00:03:00,26.3,21.0,29.56,South,178,0.0,0.0,80,0.00,,,0.00,0,Wunderground v.1.15,2013-02-26 09:03:00,
2013-02-26 00:09:00,25.6,21.4,29.56,South,190,0.0,3.0,84,0.00,,,0.00,0,Wunderground v.1.15,2013-02-26 09:09:00,
2013-02-26 00:14:00,25.9,20.3,29.55,South,190,0.0,1.0,79,0.00,,,0.00,0,Wunderground v.1.15,2013-02-26 09:14:00,
2013-02-26 00:20:00,26.6,20.7,29.55,SE,126,0.0,0.0,78,0.00,,,0.00,0,Wunderground v.1.15,2013-02-26 09:20:00,
2013-02-26 00:25:00,26.1,21.4,29.56,SSE,161,0.0,2.0,82,0.00,,,0.00,0,Wunderground v.1.15,2013-02-26 09:25:00,
2013-02-26 00:31:00,26.1,21.1,29.56,SSE,161,0.0,0.0,81,0.00,,,0.00,0,Wunderground v.1.15,2013-02-26 09:31:00,
2013-02-26 00:36:00,25.6,20.9,29.56,SSE,155,0.0,2.0,82,0.00,,,0.00,0,Wunderground v.1.15,2013-02-26 09:36:00,
2013-02-26 00:42:00,25.7,20.7,29.56,SE,132,0.0,1.0,81,0.00,,,0.00,0,Wunderground v.1.15,2013-02-26 09:42:00,
2013-02-26 00:48:00,25.6,20.9,29.56,SE,132,0.0,1.0,82,0.00,,,0.00,0,Wunderground v.1.15,2013-02-26 09:48:00,
2013-02-26 00:53:00,25.2,20.5,29.56,SSW,203,0.0,0.0,82,0.00,,,0.00,0,Wunderground v.1.15,2013-02-26 09:53:00,
2013-02-26 00:58:00,25.2,20.5,29.57,SSW,203,0.0,0.0,82,0.00,,,0.00,0,Wunderground v.1.15,2013-02-26 09:58:00,
2013-02-26 01:03:00,25.2,20.8,29.56,SSW,203,0.0,0.0,83,0.00,,,0.00,0,Wunderground v.1.15,2013-02-26 10:03:00,
2013-02-26 01:09:00,24.9,20.8,29.56,SSW,203,0.0,0.0,84,0.00,,,0.00,0,Wunderground v.1.15,2013-02-26 10:09:00,
2013-02-26 01:15:00,24.9,20.8,29.57,SE,128,3.0,3.0,84,0.00,,,0.00,0,Wunderground v.1.15,2013-02-26 10:15:00,
2013-02-26 01:21:00,25.0,20.6,29.57,SW,214,2.0,2.0,83,0.00,,,0.00,0,Wunderground v.1.15,2013-02-26 10:21:00,
2013-02-26 01:26:00,25.2,20.8,29.56,SW,222,2.0,3.0,83,0.00,,,0.00,0,Wunderground v.1.15,2013-02-26 10:26:00,
2013-02-26 01:31:00,25.3,20.6,29.56,SW,214,1.0,2.0,82,0.00,,,0.00,0,Wunderground v.1.15,2013-02-26 10:31:00,
2013-02-26 01:36:00,25.3,20.9,29.56,SW,214,0.0,2.0,83,0.00,,,0.00,0,Wunderground v.1.15,2013-02-26 10:36:00,
2013-02-26 01:41:00,25.0,20.6,29.56,SW,214,0.0,0.0,83,0.00,,,0.00,0,Wunderground v.1.15,2013-02-26 10:41:00,
2013-02-26 01:47:00,24.9,20.8,29.56,South,173,1.0,1.0,84,0.00,,,0.00,0,Wunderground v.1.15,2013-02-26 10:47:00,
2013-02-26 01:52:00,24.8,20.4,29.55,SSE,158,0.0,0.0,83,0.00,,,0.00,0,Wunderground v.1.15,2013-02-26 10:52:00,
2013-02-26 01:58:00,24.9,20.8,29.56,SE,146,3.0,3.0,84,0.00,,,0.00,0,Wunderground v.1.15,2013-02-26 10:58:00,
2013-02-26 02:03:00,24.6,20.5,29.56,SSE,161,0.0,1.0,84,0.00,,,0.00,0,Wunderground v.1.15,2013-02-26 11:03:00,
2013-02-26 02:08:00,24.6,20.5,29.56,SSE,161,1.0,1.0,84,0.00,,,0.00,0,Wunderground v.1.15,2013-02-26 11:08:00,
2013-02-26 02:13:00,24.3,20.4,29.56,SSE,165,1.0,2.0,85,0.00,,,0.00,0,Wunderground v.1.15,2013-02-26 11:13:00,
2013-02-26 02:18:00,24.7,20.6,29.56,SSE,164,0.0,2.0,84,0.00,,,0.00,0,Wunderground v.1.15,2013-02-26 11:18:00,
2013-02-26 02:23:00,24.6,20.5,29.56,West,277,1.0,2.0,84,0.00,,,0.00,0,Wunderground v.1.15,2013-02-26 11:23:00,
2013-02-26 02:28:00,24.4,20.5,29.56,SE,136,0.0,2.0,85,0.00,,,0.00,0,Wunderground v.1.15,2013-02-26 11:28:00,
2013-02-26 02:33:00,24.3,20.4,29.56,SE,136,0.0,0.0,85,0.00,,,0.00,0,Wunderground v.1.15,2013-02-26 11:33:00,
2013-02-26 02:38:00,24.3,20.4,29.56,SE,136,0.0,2.0,85,0.00,,,0.00,0,Wunderground v.1.15,2013-02-26 11:38:00,
2013-02-26 02:43:00,24.5,20.6,29.56,SE,136,0.0,0.0,85,0.00,,,0.00,0,Wunderground v.1.15,2013-02-26 11:43:00,
2013-02-26 02:48:00,24.4,20.5,29.56,SE,136,0.0,0.0,85,0.00,,,0.00,0,Wunderground v.1.15,2013-02-26 11:48:00,
2013-02-26 02:53:00,23.6,19.8,29.55,East,90,1.0,2.0,85,0.00,,,0.00,0,Wunderground v.1.15,2013-02-26 11:53:00,
2013-02-26 02:58:00,23.3,19.7,29.55,East,90,0.0,2.0,86,0.00,,,0.00,0,Wunderground v.1.15,2013-02-26 11:58:00,
2013-02-26 03:03:00,23.2,19.9,29.55,East,90,0.0,0.0,87,0.00,,,0.00,0,Wunderground v.1.15,2013-02-26 12:03:00,
2013-02-26 03:08:00,23.3,20.0,29.55,East,90,0.0,0.0,87,0.00,,,0.00,0,Wunderground v.1.15,2013-02-26 12:08:00,
2013-02-26 03:13:00,23.3,20.0,29.55,East,90,0.0,1.0,87,0.00,,,0.00,0,Wunderground v.1.15,2013-02-26 12:13:00,
2013-02-26 03:18:00,23.4,19.8,29.54,East,90,0.0,1.0,86,0.00,,,0.00,0,Wunderground v.1.15,2013-02-26 12:18:00,
2013-02-26 03:23:00,23.4,19.8,29.54,East,90,0.0,0.0,86,0.00,,,0.00,0,Wunderground v.1.15,2013-02-26 12:23:00,
2013-02-26 03:28:00,23.5,19.9,29.54,East,90,0.0,0.0,86,0.00,,,0.00,0,Wunderground v.1.15,2013-02-26 12:28:00,
2013-02-26 03:33:00,23.7,20.1,29.54,East,90,0.0,0.0,86,0.00,,,0.00,0,Wunderground v.1.15,2013-02-26 12:33:00,
2013-02-26 03:38:00,23.5,19.9,29.54,East,92,0.0,0.0,86,0.00,,,0.00,0,Wunderground v.1.15,2013-02-26 12:38:00,
2013-02-26 03:43:00,23.4,20.1,29.54,SE,141,0.0,0.0,87,0.00,,,0.00,0,Wunderground v.1.15,2013-02-26 12:43:00,
2013-02-26 03:49:00,23.4,20.1,29.54,SE,141,0.0,0.0,87,0.00,,,0.00,0,Wunderground v.1.15,2013-02-26 12:49:00,
2013-02-26 03:54:00,23.4,20.1,29.53,SE,142,0.0,0.0,87,0.00,,,0.00,0,Wunderground v.1.15,2013-02-26 12:54:00,
2013-02-26 03:59:00,23.3,20.0,29.53,SE,142,0.0,0.0,87,0.00,,,0.00,0,Wunderground v.1.15,2013-02-26 12:59:00,
2013-02-26 04:04:00,23.3,20.0,29.54,ENE,69,2.0,2.0,87,0.00,,,0.00,0,Wunderground v.1.15,2013-02-26 13:04:00,
2013-02-26 04:09:00,23.2,19.9,29.53,ESE,117,1.0,3.0,87,0.00,,,0.00,0,Wunderground v.1.15,2013-02-26 13:09:00,
2013-02-26 04:14:00,22.9,19.6,29.53,ESE,117,0.0,1.0,87,0.00,,,0.00,0,Wunderground v.1.15,2013-02-26 13:14:00,
2013-02-26 04:19:00,22.7,19.7,29.53,ESE,119,0.0,3.0,88,0.00,,,0.00,0,Wunderground v.1.15,2013-02-26 13:19:00,
2013-02-26 04:24:00,23.5,20.2,29.52,ESE,119,0.0,0.0,87,0.00,,,0.00,0,Wunderground v.1.15,2013-02-26 13:24:00,
2013-02-26 04:29:00,23.5,20.2,29.52,ESE,119,0.0,0.0,87,0.00,,,0.00,0,Wunderground v.1.15,2013-02-26 13:29:00,
2013-02-26 04:34:00,23.4,19.8,29.52,ESE,119,0.0,0.0,86,0.00,,,0.00,0,Wunderground v.1.15,2013-02-26 13:34:00,
2013-02-26 04:39:00,22.8,19.5,29.52,ESE,119,0.0,0.0,87,0.00,,,0.00,0,Wunderground v.1.15,2013-02-26 13:39:00,
2013-02-26 04:44:00,22.7,19.7,29.52,ESE,119,0.0,0.0,88,0.00,,,0.00,0,Wunderground v.1.15,2013-02-26 13:44:00,
2013-02-26 04:49:00,22.7,19.7,29.52,ESE,119,0.0,0.0,88,0.00,,,0.00,0,Wunderground v.1.15,2013-02-26 13:49:00,
2013-02-26 04:54:00,22.6,19.6,29.51,ESE,119,0.0,0.0,88,0.00,,,0.00,0,Wunderground v.1.15,2013-02-26 13:54:00,
2013-02-26 04:59:00,22.4,19.4,29.51,East,84,0.0,1.0,88,0.00,,,0.00,0,Wunderground v.1.15,2013-02-26 13:59:00,
2013-02-26 05:04:00,23.1,19.8,29.51,East,84,0.0,0.0,87,0.00,,,0.00,0,Wunderground v.1.15,2013-02-26 14:04:00,
2013-02-26 05:09:00,23.0,19.7,29.51,East,84,0.0,0.0,87,0.00,,,0.00,0,Wunderground v.1.15,2013-02-26 14:09:00,
2013-02-26 05:14:00,22.8,19.5,29.51,East,84,0.0,0.0,87,0.00,,,0.00,0,Wunderground v.1.15,2013-02-26 14:14:00,
2013-02-26 05:19:00,22.8,19.5,29.51,ESE,121,2.0,2.0,87,0.00,,,0.00,0,Wunderground v.1.15,2013-02-26 14:19:00,
2013-02-26 05:24:00,22.7,19.7,29.50,SE,142,0.0,1.0,88,0.00,,,0.00,0,Wunderground v.1.15,2013-02-26 14:24:00,
2013-02-26 05:29:00,23.1,19.8,29.50,SE,142,0.0,1.0,87,0.00,,,0.00,0,Wunderground v.1.15,2013-02-26 14:29:00,
2013-02-26 05:34:00,22.9,19.6,29.50,SE,142,0.0,0.0,87,0.00,,,0.00,0,Wunderground v.1.15,2013-02-26 14:34:00,
2013-02-26 05:39:00,23.0,19.7,29.50,SE,125,0.0,2.0,87,0.00,,,0.00,0,Wunderground v.1.15,2013-02-26 14:39:00,
2013-02-26 05:44:00,23.3,20.0,29.50,SE,125,1.0,1.0,87,0.00,,,0.00,0,Wunderground v.1.15,2013-02-26 14:44:00,
2013-02-26 05:49:00,22.9,19.3,29.50,ESE,122,1.0,1.0,86,0.00,,,0.00,0,Wunderground v.1.15,2013-02-26 14:49:00,
2013-02-26 05:54:00,22.7,19.4,29.50,ESE,115,0.0,0.0,87,0.00,,,0.00,0,Wunderground v.1.15,2013-02-26 14:54:00,
2013-02-26 05:59:00,22.7,19.4,29.49,East,85,0.0,2.0,87,0.00,,,0.00,0,Wunderground v.1.15,2013-02-26 14:59:00,
2013-02-26 06:04:00,23.1,19.8,29.49,ESE,113,0.0,2.0,87,0.00,,,0.00,0,Wunderground v.1.15,2013-02-26 15:04:00,
2013-02-26 06:09:00,22.9,19.6,29.49,ESE,112,0.0,2.0,87,0.00,,,0.00,0,Wunderground v.1.15,2013-02-26 15:09:00,
2013-02-26 06:14:00,23.1,19.5,29.49,ESE,113,0.0,0.0,86,0.00,,,0.00,0,Wunderground v.1.15,2013-02-26 15:14:00,
2013-02-26 06:19:00,22.7,19.1,29.49,ESE,112,0.0,0.0,86,0.00,,,0.00,0,Wunderground v.1.15,2013-02-26 15:19:00,
2013-02-26 06:24:00,22.8,19.2,29.48,WNW,301,0.0,3.0,86,0.00,,,0.00,0,Wunderground v.1.15,2013-02-26 15:24:00,
2013-02-26 06:29:00,22.8,19.2,29.49,SE,126,0.0,4.0,86,0.00,,,0.00,0,Wunderground v.1.15,2013-02-26 15:29:00,
2013-02-26 06:34:00,22.9,19.6,29.49,SSE,163,0.0,1.0,87,0.00,,,0.00,0,Wunderground v.1.15,2013-02-26 15:34:00,
2013-02-26 06:39:00,23.1,19.5,29.49,SSE,163,0.0,1.0,86,0.00,,,0.00,0,Wunderground v.1.15,2013-02-26 15:39:00,
2013-02-26 06:44:00,23.0,19.4,29.48,SSE,163,0.0,0.0,86,0.00,,,0.00,0,Wunderground v.1.15,2013-02-26 15:44:00,
2013-02-26 06:49:00,23.0,19.4,29.48,SSE,164,0.0,0.0,86,0.00,,,0.00,0,Wunderground v.1.15,2013-02-26 15:49:00,
2013-02-26 06:54:00,22.9,19.3,29.48,SSE,164,0.0,0.0,86,0.00,,,0.00,0,Wunderground v.1.15,2013-02-26 15:54:00,
2013-02-26 06:59:00,22.7,19.4,29.49,SSE,164,0.0,0.0,87,0.00,,,0.00,0,Wunderground v.1.15,2013-02-26 15:59:00,
2013-02-26 07:04:00,22.7,19.4,29.48,SSE,164,0.0,0.0,87,0.00,,,0.00,0,Wunderground v.1.15,2013-02-26 16:04:00,
2013-02-26 07:09:00,22.6,19.6,29.48,SSE,164,0.0,0.0,88,0.00,,,0.00,0,Wunderground v.1.15,2013-02-26 16:09:00,
2013-02-26 07:14:00,22.9,19.6,29.48,SSE,164,0.0,0.0,87,0.00,,,0.00,0,Wunderground v.1.15,2013-02-26 16:14:00,
2013-02-26 07:19:00,23.0,19.7,29.48,SSE,164,0.0,0.0,87,0.00,,,0.00,0,Wunderground v.1.15,2013-02-26 16:19:00,
2013-02-26 07:24:00,22.9,19.6,29.48,SSE,164,0.0,0.0,87,0.00,,,0.00,0,Wunderground v.1.15,2013-02-26 16:24:00,
2013-02-26 07:29:00,22.8,19.5,29.48,SSE,164,0.0,0.0,87,0.00,,,0.00,0,Wunderground v.1.15,2013-02-26 16:29:00,
2013-02-26 07:34:00,22.8,19.5,29.48,SSE,164,0.0,0.0,87,0.00,,,0.00,0,Wunderground v.1.15,2013-02-26 16:34:00,
2013-02-26 07:39:00,22.8,19.5,29.48,SSE,164,0.0,0.0,87,0.00,,,0.00,0,Wunderground v.1.15,2013-02-26 16:39:00,
2013-02-26 07:44:00,22.9,19.6,29.48,SSE,164,0.0,0.0,87,0.00,,,0.00,0,Wunderground v.1.15,2013-02-26 16:44:00,
2013-02-26 07:49:00,23.0,19.7,29.48,SE,144,2.0,2.0,87,0.00,,,0.00,0,Wunderground v.1.15,2013-02-26 16:49:00,
2013-02-26 07:54:00,23.0,19.4,29.47,SE,144,0.0,1.0,86,0.00,,,0.00,0,Wunderground v.1.15,2013-02-26 16:54:00,
2013-02-26 08:00:00,23.0,19.4,29.47,SE,143,0.0,0.0,86,0.00,,,0.00,0,Wunderground v.1.15,2013-02-26 17:00:00,
2013-02-26 08:05:00,23.2,19.6,29.47,SE,143,0.0,0.0,86,0.00,,,0.00,0,Wunderground v.1.15,2013-02-26 17:05:00,
2013-02-26 08:10:00,23.2,19.4,29.47,SE,138,1.0,1.0,85,0.00,,,0.00,5,Wunderground v.1.15,2013-02-26 17:10:00,
2013-02-26 08:15:00,23.0,19.4,29.47,SE,129,0.0,1.0,86,0.00,,,0.00,11,Wunderground v.1.15,2013-02-26 17:15:00,
2013-02-26 08:20:00,22.8,19.2,29.47,SE,129,0.0,0.0,86,0.00,,,0.00,26,Wunderground v.1.15,2013-02-26 17:20:00,
2013-02-26 08:25:00,22.8,19.2,29.47,SE,129,0.0,0.0,86,0.00,,,0.00,32,Wunderground v.1.15,2013-02-26 17:25:00,
2013-02-26 08:30:00,22.8,19.2,29.46,SE,129,0.0,0.0,86,0.00,,,0.00,28,Wunderground v.1.15,2013-02-26 17:30:00,
2013-02-26 08:35:00,22.6,19.0,29.46,SE,128,0.0,2.0,86,0.00,,,0.00,32,Wunderground v.1.15,2013-02-26 17:35:00,
2013-02-26 08:40:00,22.5,19.2,29.46,SE,128,0.0,0.0,87,0.00,,,0.00,39,Wunderground v.1.15,2013-02-26 17:40:00,
2013-02-26 08:45:00,23.0,19.2,29.46,SE,127,1.0,1.0,85,0.00,,,0.00,46,Wunderground v.1.15,2013-02-26 17:45:00,
2013-02-26 08:50:00,22.3,18.7,29.46,SE,127,0.0,0.0,86,0.00,,,0.00,51,Wunderground v.1.15,2013-02-26 17:50:00,
2013-02-26 08:55:00,23.1,19.8,29.46,SE,126,0.0,0.0,87,0.00,,,0.00,58,Wunderground v.1.15,2013-02-26 17:55:00,
2013-02-26 09:00:00,22.6,18.8,29.46,East,100,0.0,0.0,85,0.00,,,0.00,67,Wunderground v.1.15,2013-02-26 18:00:00,
2013-02-26 09:05:00,22.5,18.9,29.46,East,100,0.0,1.0,86,0.00,,,0.00,74,Wunderground v.1.15,2013-02-26 18:05:00,
2013-02-26 09:10:00,22.4,19.1,29.46,East,100,0.0,0.0,87,0.00,,,0.00,81,Wunderground v.1.15,2013-02-26 18:10:00,
2013-02-26 09:15:00,23.1,19.3,29.46,East,100,0.0,0.0,85,0.00,,,0.00,93,Wunderground v.1.15,2013-02-26 18:15:00,
2013-02-26 09:20:00,23.3,19.7,29.45,East,100,0.0,0.0,86,0.00,,,0.00,102,Wunderground v.1.15,2013-02-26 18:20:00,
2013-02-26 09:25:00,23.6,19.5,29.46,East,100,0.0,0.0,84,0.00,,,0.00,116,Wunderground v.1.15,2013-02-26 18:25:00,
2013-02-26 09:30:00,23.3,19.5,29.46,East,100,0.0,0.0,85,0.00,,,0.00,158,Wunderground v.1.15,2013-02-26 18:30:00,
2013-02-26 09:35:00,23.8,19.9,29.46,East,101,0.0,0.0,85,0.00,,,0.00,197,Wunderground v.1.15,2013-02-26 18:35:00,
2013-02-26 09:40:00,24.6,20.5,29.46,ESE,102,0.0,0.0,84,0.00,,,0.00,199,Wunderground v.1.15,2013-02-26 18:40:00,
2013-02-26 09:45:00,25.5,20.8,29.46,ESE,102,0.0,0.0,82,0.00,,,0.00,195,Wunderground v.1.15,2013-02-26 18:45:00,
2013-02-26 09:50:00,26.5,21.2,29.46,ESE,103,0.0,0.0,80,0.00,,,0.00,200,Wunderground v.1.15,2013-02-26 18:50:00,
2013-02-26 09:55:00,25.8,20.8,29.46,ESE,102,0.0,0.0,81,0.00,,,0.00,202,Wunderground v.1.15,2013-02-26 18:55:00,
2013-02-26 10:00:00,26.8,21.2,29.46,ESE,102,0.0,0.0,79,0.00,,,0.00,197,Wunderground v.1.15,2013-02-26 19:00:00,
2013-02-26 10:05:00,27.0,21.1,29.46,ESE,103,0.0,0.0,78,0.00,,,0.00,216,Wunderground v.1.15,2013-02-26 19:05:00,
2013-02-26 10:10:00,27.4,20.8,29.45,ESE,102,0.0,0.0,76,0.00,,,0.00,265,Wunderground v.1.15,2013-02-26 19:10:00,
2013-02-26 10:15:00,28.1,21.2,29.45,East,95,0.0,1.0,75,0.00,,,0.00,241,Wunderground v.1.15,2013-02-26 19:15:00,
2013-02-26 10:20:00,27.8,20.3,29.45,East,94,0.0,0.0,73,0.00,,,0.00,204,Wunderground v.1.15,2013-02-26 19:20:00,
2013-02-26 10:25:00,27.9,20.4,29.45,East,95,0.0,0.0,73,0.00,,,0.00,225,Wunderground v.1.15,2013-02-26 19:25:00,
2013-02-26 10:30:00,28.3,20.4,29.44,East,95,0.0,0.0,72,0.00,,,0.00,274,Wunderground v.1.15,2013-02-26 19:30:00,
2013-02-26 10:35:00,28.9,20.7,29.44,ENE,63,0.0,0.0,71,0.00,,,0.00,237,Wunderground v.1.15,2013-02-26 19:35:00,
2013-02-26 10:40:00,29.6,21.0,29.44,NE,55,1.0,2.0,70,0.00,,,0.00,229,Wunderground v.1.15,2013-02-26 19:40:00,
2013-02-26 10:45:00,29.7,20.8,29.44,ENE,57,0.0,2.0,69,0.00,,,0.00,221,Wunderground v.1.15,2013-02-26 19:45:00,
2013-02-26 10:50:00,29.9,20.6,29.44,NNE,17,2.0,2.0,68,0.00,,,0.00,223,Wunderground v.1.15,2013-02-26 19:50:00,
2013-02-26 10:55:00,29.9,20.6,29.44,NNE,28,0.0,5.0,68,0.00,,,0.00,230,Wunderground v.1.15,2013-02-26 19:55:00,
2013-02-26 11:00:00,29.8,20.5,29.44,NE,40,1.0,2.0,68,0.00,,,0.00,243,Wunderground v.1.15,2013-02-26 20:00:00,
2013-02-26 11:05:00,29.9,20.6,29.44,North,11,0.0,3.0,68,0.00,,,0.00,246,Wunderground v.1.15,2013-02-26 20:05:00,
2013-02-26 11:11:00,30.3,21.0,29.44,NE,41,0.0,3.0,68,0.00,,,0.00,466,Wunderground v.1.15,2013-02-26 20:11:00,
2013-02-26 11:16:00,30.8,21.1,29.44,North,5,2.0,3.0,67,0.00,,,0.00,538,Wunderground v.1.15,2013-02-26 20:16:00,
2013-02-26 11:21:00,31.2,21.5,29.43,NE,45,4.0,6.0,67,0.00,,,0.00,548,Wunderground v.1.15,2013-02-26 20:21:00,
2013-02-26 11:26:00,31.4,21.7,29.44,NE,36,2.0,6.0,67,0.00,,,0.00,582,Wunderground v.1.15,2013-02-26 20:26:00,
2013-02-26 11:31:00,31.6,21.5,29.43,North,355,1.0,3.0,66,0.00,,,0.00,596,Wunderground v.1.15,2013-02-26 20:31:00,
2013-02-26 11:36:00,31.8,21.4,29.44,NE,40,2.0,4.0,65,0.00,,,0.00,636,Wunderground v.1.15,2013-02-26 20:36:00,
2013-02-26 11:41:00,32.3,21.5,29.43,NW,315,1.0,3.0,64,0.00,,,0.00,638,Wunderground v.1.15,2013-02-26 20:41:00,
2013-02-26 11:46:00,32.4,21.6,29.43,NNW,340,1.0,3.0,64,0.00,,,0.00,575,Wunderground v.1.15,2013-02-26 20:46:00,
2013-02-26 11:51:00,32.5,20.9,29.44,NNW,338,1.0,3.0,62,0.00,,,0.00,603,Wunderground v.1.15,2013-02-26 20:51:00,
2013-02-26 11:56:00,32.5,21.3,29.43,North,351,1.0,3.0,63,0.00,,,0.00,577,Wunderground v.1.15,2013-02-26 20:56:00,
2013-02-26 12:01:00,32.3,21.5,29.43,NNW,328,4.0,4.0,64,0.00,,,0.00,457,Wunderground v.1.15,2013-02-26 21:01:00,
2013-02-26 12:06:00,32.6,21.8,29.43,NNE,18,1.0,5.0,64,0.00,,,0.00,494,Wunderground v.1.15,2013-02-26 21:06:00,
2013-02-26 12:11:00,32.9,21.7,29.43,NNE,32,2.0,2.0,63,0.00,,,0.00,508,Wunderground v.1.15,2013-02-26 21:11:00,
2013-02-26 12:16:00,33.1,21.9,29.42,NNW,343,0.0,6.0,63,0.00,,,0.00,490,Wunderground v.1.15,2013-02-26 21:16:00,
2013-02-26 12:21:00,33.1,21.5,29.42,NW,311,1.0,2.0,62,0.00,,,0.00,478,Wunderground v.1.15,2013-02-26 21:21:00,
2013-02-26 12:26:00,33.2,21.2,29.42,North,355,3.0,4.0,61,0.00,,,0.00,390,Wunderground v.1.15,2013-02-26 21:26:00,
2013-02-26 12:31:00,33.0,21.4,29.42,NNW,346,1.0,2.0,62,0.00,,,0.00,139,Wunderground v.1.15,2013-02-26 21:31:00,
2013-02-26 12:36:00,33.0,21.4,29.43,North,355,0.0,2.0,62,0.00,,,0.00,188,Wunderground v.1.15,2013-02-26 21:36:00,
2013-02-26 12:41:00,33.0,21.4,29.42,NNW,329,0.0,2.0,62,0.00,,,0.00,190,Wunderground v.1.15,2013-02-26 21:41:00,
2013-02-26 12:46:00,33.0,21.0,29.43,NW,319,1.0,2.0,61,0.00,,,0.00,223,Wunderground v.1.15,2013-02-26 21:46:00,
2013-02-26 12:51:00,33.1,21.1,29.42,NNW,332,0.0,1.0,61,0.00,,,0.00,223,Wunderground v.1.15,2013-02-26 21:51:00,
2013-02-26 12:56:00,33.2,21.2,29.42,NNW,340,2.0,3.0,61,0.00,,,0.00,197,Wunderground v.1.15,2013-02-26 21:56:00,
2013-02-26 13:01:00,33.0,21.4,29.42,NNE,28,0.0,5.0,62,0.00,,,0.00,162,Wunderground v.1.15,2013-02-26 22:01:00,
2013-02-26 13:06:00,33.0,21.4,29.41,North,5,3.0,5.0,62,0.00,,,0.00,162,Wunderground v.1.15,2013-02-26 22:06:00,
2013-02-26 13:11:00,33.1,21.1,29.42,NNE,15,0.0,2.0,61,0.00,,,0.00,158,Wunderground v.1.15,2013-02-26 22:11:00,
2013-02-26 13:16:00,33.4,21.0,29.42,ENE,62,1.0,2.0,60,0.00,,,0.00,192,Wunderground v.1.15,2013-02-26 22:16:00,
2013-02-26 13:21:00,33.2,20.8,29.42,ENE,67,0.0,0.0,60,0.00,,,0.00,232,Wunderground v.1.15,2013-02-26 22:21:00,
2013-02-26 13:26:00,33.3,20.9,29.42,NE,55,0.0,2.0,60,0.00,,,0.00,287,Wunderground v.1.15,2013-02-26 22:26:00,
2013-02-26 13:31:00,33.6,21.2,29.41,NE,55,0.0,0.0,60,0.00,,,0.00,237,Wunderground v.1.15,2013-02-26 22:31:00,
2013-02-26 13:37:00,33.7,20.9,29.41,NNW,335,2.0,2.0,59,0.00,,,0.00,276,Wunderground v.1.15,2013-02-26 22:37:00,
2013-02-26 13:42:00,34.3,21.4,29.41,North,360,2.0,2.0,59,0.00,,,0.00,311,Wunderground v.1.15,2013-02-26 22:42:00,
2013-02-26 13:47:00,34.6,20.9,29.41,West,259,0.0,2.0,57,0.00,,,0.00,411,Wunderground v.1.15,2013-02-26 22:47:00,
2013-02-26 13:52:00,35.0,20.4,29.41,WNW,300,0.0,0.0,55,0.00,,,0.00,606,Wunderground v.1.15,2013-02-26 22:52:00,
2013-02-26 13:57:00,34.9,20.8,29.41,WSW,240,2.0,2.0,56,0.00,,,0.00,179,Wunderground v.1.15,2013-02-26 22:57:00,
2013-02-26 14:02:00,34.6,20.5,29.40,WSW,239,0.0,0.0,56,0.00,,,0.00,209,Wunderground v.1.15,2013-02-26 23:02:00,
2013-02-26 14:07:00,34.8,20.7,29.41,SSW,205,0.0,1.0,56,0.00,,,0.00,566,Wunderground v.1.15,2013-02-26 23:07:00,
2013-02-26 14:12:00,34.9,20.8,29.40,SW,236,0.0,2.0,56,0.00,,,0.00,397,Wunderground v.1.15,2013-02-26 23:12:00,
2013-02-26 14:17:00,35.2,21.1,29.40,SSW,209,1.0,2.0,56,0.00,,,0.00,248,Wunderground v.1.15,2013-02-26 23:17:00,
2013-02-26 14:22:00,35.2,20.6,29.40,SSW,209,0.0,2.0,55,0.00,,,0.00,399,Wunderground v.1.15,2013-02-26 23:22:00,
2013-02-26 14:27:00,35.3,21.2,29.39,SSW,209,0.0,2.0,56,0.00,,,0.00,330,Wunderground v.1.15,2013-02-26 23:27:00,
2013-02-26 14:32:00,35.3,21.2,29.40,SSW,208,2.0,3.0,56,0.00,,,0.00,431,Wunderground v.1.15,2013-02-26 23:32:00,
2013-02-26 14:37:00,35.2,21.5,29.39,WSW,237,0.0,3.0,57,0.00,,,0.00,295,Wunderground v.1.15,2013-02-26 23:37:00,
2013-02-26 14:42:00,35.1,21.0,29.39,South,180,0.0,1.0,56,0.00,,,0.00,172,Wunderground v.1.15,2013-02-26 23:42:00,
2013-02-26 14:48:00,34.9,20.8,29.39,South,180,0.0,1.0,56,0.00,,,0.00,197,Wunderground v.1.15,2013-02-26 23:48:00,
2013-02-26 14:53:00,34.9,20.8,29.40,South,180,0.0,0.0,56,0.00,,,0.00,178,Wunderground v.1.15,2013-02-26 23:53:00,
2013-02-26 14:58:00,35.2,21.5,29.40,South,180,0.0,1.0,57,0.00,,,0.00,179,Wunderground v.1.15,2013-02-26 23:58:00,
2013-02-26 15:03:00,34.8,21.1,29.39,South,181,0.0,1.0,57,0.00,,,0.00,176,Wunderground v.1.15,2013-02-27 00:03:00,
2013-02-26 15:08:00,35.1,21.4,29.39,SW,219,0.0,2.0,57,0.00,,,0.00,290,Wunderground v.1.15,2013-02-27 00:08:00,
2013-02-26 15:13:00,35.6,21.9,29.39,NW,313,0.0,2.0,57,0.00,,,0.00,281,Wunderground v.1.15,2013-02-27 00:13:00,
2013-02-26 15:17:00,35.3,21.6,29.38,NW,314,0.0,2.0,57,0.00,,,0.00,403,Wunderground v.1.15,2013-02-27 00:17:00,
2013-02-26 15:23:00,36.0,21.8,29.38,NW,314,1.0,3.0,56,0.00,,,0.00,364,Wunderground v.1.15,2013-02-27 00:23:00,
2013-02-26 15:28:00,36.0,21.4,29.38,NW,323,0.0,3.0,55,0.00,,,0.00,327,Wunderground v.1.15,2013-02-27 00:28:00,
2013-02-26 15:33:00,36.2,22.0,29.38,NW,322,0.0,0.0,56,0.00,,,0.00,309,Wunderground v.1.15,2013-02-27 00:33:00,
2013-02-26 15:38:00,36.0,21.4,29.38,NNW,345,0.0,1.0,55,0.00,,,0.00,297,Wunderground v.1.15,2013-02-27 00:38:00,
2013-02-26 15:43:00,36.8,22.1,29.38,NW,317,0.0,3.0,55,0.00,,,0.00,287,Wunderground v.1.15,2013-02-27 00:43:00,
2013-02-26 15:48:00,36.9,21.8,29.38,North,350,0.0,3.0,54,0.00,,,0.00,272,Wunderground v.1.15,2013-02-27 00:48:00,
2013-02-26 15:53:00,36.9,21.8,29.37,NW,315,0.0,1.0,54,0.00,,,0.00,262,Wunderground v.1.15,2013-02-27 00:53:00,
2013-02-26 15:58:00,36.4,21.8,29.37,NNW,333,0.0,2.0,55,0.00,,,0.00,237,Wunderground v.1.15,2013-02-27 00:58:00,
2013-02-26 16:03:00,36.3,21.7,29.36,WNW,290,0.0,2.0,55,0.00,,,0.00,234,Wunderground v.1.15,2013-02-27 01:03:00,
2013-02-26 16:08:00,36.5,21.8,29.37,North,5,1.0,2.0,55,0.00,,,0.00,225,Wunderground v.1.15,2013-02-27 01:08:00,
2013-02-26 16:13:00,36.2,22.0,29.36,NW,319,1.0,2.0,56,0.00,,,0.00,211,Wunderground v.1.15,2013-02-27 01:13:00,
2013-02-26 16:18:00,36.4,21.8,29.36,NW,321,0.0,2.0,55,0.00,,,0.00,195,Wunderground v.1.15,2013-02-27 01:18:00,
2013-02-26 16:23:00,36.4,21.8,29.36,NW,310,0.0,3.0,55,0.00,,,0.00,185,Wunderground v.1.15,2013-02-27 01:23:00,
2013-02-26 16:28:00,36.5,21.8,29.36,West,280,3.0,3.0,55,0.00,,,0.00,171,Wunderground v.1.15,2013-02-27 01:28:00,
2013-02-26 16:33:00,36.2,21.6,29.36,NW,310,0.0,1.0,55,0.00,,,0.00,156,Wunderground v.1.15,2013-02-27 01:33:00,
2013-02-26 16:38:00,36.6,21.9,29.36,NW,325,1.0,1.0,55,0.00,,,0.00,142,Wunderground v.1.15,2013-02-27 01:38:00,
2013-02-26 16:43:00,36.6,21.5,29.35,NW,306,0.0,1.0,54,0.00,,,0.00,128,Wunderground v.1.15,2013-02-27 01:43:00,
2013-02-26 16:48:00,36.7,21.6,29.35,WNW,294,0.0,3.0,54,0.00,,,0.00,118,Wunderground v.1.15,2013-02-27 01:48:00,
2013-02-26 16:53:00,36.6,21.5,29.35,WNW,295,2.0,2.0,54,0.00,,,0.00,105,Wunderground v.1.15,2013-02-27 01:53:00,
2013-02-26 16:58:00,36.6,21.1,29.35,WNW,286,2.0,3.0,53,0.00,,,0.00,95,Wunderground v.1.15,2013-02-27 01:58:00,
2013-02-26 17:03:00,36.5,21.0,29.35,WNW,288,0.0,1.0,53,0.00,,,0.00,83,Wunderground v.1.15,2013-02-27 02:03:00,
2013-02-26 17:08:00,36.4,20.9,29.35,WNW,288,0.0,1.0,53,0.00,,,0.00,74,Wunderground v.1.15,2013-02-27 02:08:00,
2013-02-26 17:13:00,36.6,20.6,29.34,WNW,288,0.0,1.0,52,0.00,,,0.00,65,Wunderground v.1.15,2013-02-27 02:13:00,
2013-02-26 17:19:00,36.9,20.9,29.35,WNW,288,0.0,1.0,52,0.00,,,0.00,56,Wunderground v.1.15,2013-02-27 02:19:00,
2013-02-26 17:24:00,36.8,20.8,29.35,West,281,0.0,0.0,52,0.00,,,0.00,54,Wunderground v.1.15,2013-02-27 02:24:00,
2013-02-26 17:29:00,36.4,20.9,29.35,SW,225,0.0,2.0,53,0.00,,,0.00,51,Wunderground v.1.15,2013-02-27 02:29:00,
2013-02-26 17:34:00,35.9,20.9,29.35,SW,225,0.0,2.0,54,0.00,,,0.00,39,Wunderground v.1.15,2013-02-27 02:34:00,
2013-02-26 17:39:00,35.5,20.9,29.35,SW,224,1.0,3.0,55,0.00,,,0.00,33,Wunderground v.1.15,2013-02-27 02:39:00,
2013-02-26 17:44:00,35.1,21.0,29.35,WNW,282,3.0,3.0,56,0.00,,,0.00,35,Wunderground v.1.15,2013-02-27 02:44:00,
2013-02-26 17:49:00,34.4,21.5,29.35,WNW,287,0.0,3.0,59,0.00,,,0.00,30,Wunderground v.1.15,2013-02-27 02:49:00,
2013-02-26 17:54:00,34.1,21.7,29.35,NNW,334,1.0,2.0,60,0.00,,,0.00,21,Wunderground v.1.15,2013-02-27 02:54:00,
2013-02-26 17:59:00,33.6,21.2,29.35,NW,319,0.0,2.0,60,0.00,,,0.00,12,Wunderground v.1.15,2013-02-27 02:59:00,
2013-02-26 18:04:00,33.2,20.8,29.34,North,355,1.0,2.0,60,0.00,,,0.00,11,Wunderground v.1.15,2013-02-27 03:04:00,
2013-02-26 18:09:00,32.9,20.9,29.35,North,355,0.0,3.0,61,0.00,,,0.00,7,Wunderground v.1.15,2013-02-27 03:09:00,
2013-02-26 18:14:00,32.6,20.6,29.35,NNW,342,1.0,4.0,61,0.00,,,0.00,7,Wunderground v.1.15,2013-02-27 03:14:00,
2013-02-26 18:20:00,32.4,20.4,29.35,NNE,14,0.0,4.0,61,0.00,,,0.00,5,Wunderground v.1.15,2013-02-27 03:20:00,
2013-02-26 18:25:00,31.9,20.3,29.34,NE,36,0.0,2.0,62,0.00,,,0.00,0,Wunderground v.1.15,2013-02-27 03:25:00,
2013-02-26 18:30:00,31.1,21.1,29.34,ENE,65,0.0,0.0,66,0.00,,,0.00,0,Wunderground v.1.15,2013-02-27 03:30:00,
2013-02-26 18:34:00,30.6,21.3,29.34,ENE,65,0.0,2.0,68,0.00,,,0.00,0,Wunderground v.1.15,2013-02-27 03:34:00,
2013-02-26 18:40:00,30.0,21.1,29.34,NE,46,0.0,1.0,69,0.00,,,0.00,0,Wunderground v.1.15,2013-02-27 03:40:00,
2013-02-26 18:45:00,30.0,20.0,29.34,NE,38,0.0,3.0,66,0.00,,,0.00,0,Wunderground v.1.15,2013-02-27 03:45:00,
2013-02-26 18:50:00,30.0,19.7,29.34,ENE,62,2.0,2.0,65,0.00,,,0.00,0,Wunderground v.1.15,2013-02-27 03:50:00,
2013-02-26 18:55:00,30.0,20.0,29.34,NNE,13,3.0,6.0,66,0.00,,,0.00,0,Wunderground v.1.15,2013-02-27 03:55:00,
2013-02-26 19:00:00,30.0,19.7,29.34,North,9,0.0,2.0,65,0.00,,,0.00,0,Wunderground v.1.15,2013-02-27 04:00:00,
2013-02-26 19:05:00,29.1,19.2,29.33,NNW,340,2.0,3.0,66,0.00,,,0.00,0,Wunderground v.1.15,2013-02-27 04:05:00,
2013-02-26 19:10:00,29.3,19.3,29.33,NNE,22,0.0,1.0,66,0.00,,,0.00,0,Wunderground v.1.15,2013-02-27 04:10:00,
2013-02-26 19:15:00,29.6,19.3,29.33,NNE,19,2.0,3.0,65,0.00,,,0.00,0,Wunderground v.1.15,2013-02-27 04:15:00,
2013-02-26 19:20:00,29.6,19.3,29.34,NNE,27,0.0,1.0,65,0.00,,,0.00,0,Wunderground v.1.15,2013-02-27 04:20:00,
2013-02-26 19:25:00,29.2,18.9,29.34,NE,48,0.0,1.0,65,0.00,,,0.00,0,Wunderground v.1.15,2013-02-27 04:25:00,
2013-02-26 19:30:00,28.8,19.2,29.34,NE,48,0.0,0.0,67,0.00,,,0.00,0,Wunderground v.1.15,2013-02-27 04:30:00,
2013-02-26 19:35:00,29.1,19.5,29.34,NE,48,0.0,0.0,67,0.00,,,0.00,0,Wunderground v.1.15,2013-02-27 04:35:00,
2013-02-26 19:40:00,28.9,19.3,29.33,NE,48,0.0,0.0,67,0.00,,,0.00,0,Wunderground v.1.15,2013-02-27 04:40:00,
2013-02-26 19:45:00,28.4,18.8,29.33,NE,48,1.0,1.0,67,0.00,,,0.00,0,Wunderground v.1.15,2013-02-27 04:45:00,
2013-02-26 19:50:00,28.1,19.2,29.33,NE,43,0.0,0.0,69,0.00,,,0.00,0,Wunderground v.1.15,2013-02-27 04:50:00,
2013-02-26 19:55:00,27.4,19.6,29.33,East,86,0.0,2.0,72,0.00,,,0.00,0,Wunderground v.1.15,2013-02-27 04:55:00,
2013-02-26 20:00:00,26.9,19.7,29.32,East,87,0.0,1.0,74,0.00,,,0.00,0,Wunderground v.1.15,2013-02-27 05:00:00,
2013-02-26 20:05:00,26.6,19.7,29.32,East,86,0.0,1.0,75,0.00,,,0.00,0,Wunderground v.1.15,2013-02-27 05:05:00,
2013-02-26 20:10:00,26.0,19.5,29.32,NNE,32,1.0,1.0,76,0.00,,,0.00,0,Wunderground v.1.15,2013-02-27 05:10:00,
2013-02-26 20:15:00,25.8,19.9,29.32,NE,34,1.0,2.0,78,0.00,,,0.00,0,Wunderground v.1.15,2013-02-27 05:15:00,
2013-02-26 20:20:00,26.1,19.3,29.31,NNE,27,2.0,2.0,75,0.00,,,0.00,0,Wunderground v.1.15,2013-02-27 05:20:00,
2013-02-26 20:25:00,26.5,19.0,29.31,NNE,13,4.0,6.0,73,0.00,,,0.00,0,Wunderground v.1.15,2013-02-27 05:25:00,
2013-02-26 20:30:00,27.0,18.5,29.31,NNW,342,4.0,6.0,70,0.00,,,0.00,0,Wunderground v.1.15,2013-02-27 05:30:00,
2013-02-26 20:35:00,27.4,18.6,29.30,North,5,8.0,8.0,69,0.00,,,0.00,0,Wunderground v.1.15,2013-02-27 05:35:00,
2013-02-26 20:40:00,27.8,18.6,29.31,North,349,7.0,10.0,68,0.00,,,0.00,0,Wunderground v.1.15,2013-02-27 05:40:00,
2013-02-26 20:45:00,28.3,19.1,29.30,NNW,342,7.0,12.0,68,0.00,,,0.00,0,Wunderground v.1.15,2013-02-27 05:45:00,
2013-02-26 20:50:00,28.6,19.0,29.30,NNE,32,7.0,9.0,67,0.00,,,0.00,0,Wunderground v.1.15,2013-02-27 05:50:00,
2013-02-26 20:56:00,28.9,19.3,29.29,NNE,27,11.0,12.0,67,0.00,,,0.00,0,Wunderground v.1.15,2013-02-27 05:56:00,
2013-02-26 21:01:00,29.2,18.9,29.29,NNW,340,10.0,12.0,65,0.00,,,0.00,0,Wunderground v.1.15,2013-02-27 06:01:00,
2013-02-26 21:06:00,29.2,18.5,29.29,NW,321,9.0,12.0,64,0.00,,,0.00,0,Wunderground v.1.15,2013-02-27 06:06:00,
2013-02-26 21:11:00,29.0,18.3,29.29,NNW,335,6.0,8.0,64,0.00,,,0.00,0,Wunderground v.1.15,2013-02-27 06:11:00,
2013-02-26 21:16:00,28.7,18.4,29.29,WNW,301,0.0,8.0,65,0.00,,,0.00,0,Wunderground v.1.15,2013-02-27 06:16:00,
2013-02-26 21:21:00,28.4,18.5,29.29,NNW,343,4.0,6.0,66,0.00,,,0.00,0,Wunderground v.1.15,2013-02-27 06:21:00,
2013-02-26 21:26:00,28.7,19.1,29.29,North,360,4.0,8.0,67,0.00,,,0.00,0,Wunderground v.1.15,2013-02-27 06:26:00,
2013-02-26 21:31:00,28.9,19.3,29.29,NE,53,0.0,3.0,67,0.00,,,0.00,0,Wunderground v.1.15,2013-02-27 06:31:00,
2013-02-26 21:36:00,28.5,18.9,29.29,SE,138,5.0,10.0,67,0.00,,,0.00,0,Wunderground v.1.15,2013-02-27 06:36:00,
2013-02-26 21:41:00,28.0,19.1,29.29,NE,44,2.0,8.0,69,0.00,,,0.00,0,Wunderground v.1.15,2013-02-27 06:41:00,
2013-02-26 21:46:00,28.4,19.2,29.30,SSW,209,6.0,8.0,68,0.00,,,0.00,0,Wunderground v.1.15,2013-02-27 06:46:00,
2013-02-26 21:51:00,28.3,19.4,29.30,SW,225,2.0,5.0,69,0.00,,,0.00,0,Wunderground v.1.15,2013-02-27 06:51:00,
2013-02-26 21:56:00,28.3,19.4,29.30,West,280,0.0,5.0,69,0.00,,,0.00,0,Wunderground v.1.15,2013-02-27 06:56:00,
2013-02-26 22:01:00,27.6,19.1,29.30,South,186,0.0,3.0,70,0.00,,,0.00,0,Wunderground v.1.15,2013-02-27 07:01:00,
2013-02-26 22:06:00,27.1,18.9,29.30,SW,225,2.0,5.0,71,0.00,,,0.00,0,Wunderground v.1.15,2013-02-27 07:06:00,
2013-02-26 22:11:00,27.1,18.9,29.30,SSW,198,1.0,2.0,71,0.00,,,0.00,0,Wunderground v.1.15,2013-02-27 07:11:00,
2013-02-26 22:16:00,26.7,18.9,29.30,South,173,1.0,4.0,72,0.00,,,0.00,0,Wunderground v.1.15,2013-02-27 07:16:00,
2013-02-26 22:21:00,26.6,18.8,29.30,SW,225,2.0,3.0,72,0.00,,,0.00,0,Wunderground v.1.15,2013-02-27 07:21:00,
2013-02-26 22:26:00,26.7,18.9,29.30,SSE,164,0.0,3.0,72,0.00,,,0.00,0,Wunderground v.1.15,2013-02-27 07:26:00,
2013-02-26 22:31:00,26.2,18.7,29.30,SW,225,2.0,2.0,73,0.00,,,0.00,0,Wunderground v.1.15,2013-02-27 07:31:00,
2013-02-26 22:36:00,26.1,18.6,29.30,NW,312,0.0,2.0,73,0.00,,,0.00,0,Wunderground v.1.15,2013-02-27 07:36:00,
2013-02-26 22:41:00,25.3,18.2,29.30,East,96,3.0,3.0,74,0.00,,,0.00,0,Wunderground v.1.15,2013-02-27 07:41:00,
2013-02-26 22:46:00,24.9,18.4,29.30,SE,144,0.0,4.0,76,0.00,,,0.00,0,Wunderground v.1.15,2013-02-27 07:46:00,
2013-02-26 22:51:00,24.8,18.0,29.30,South,178,1.0,2.0,75,0.00,,,0.00,0,Wunderground v.1.15,2013-02-27 07:51:00,
2013-02-26 22:56:00,24.7,17.9,29.30,WNW,300,2.0,4.0,75,0.00,,,0.00,0,Wunderground v.1.15,2013-02-27 07:56:00,
2013-02-26 23:01:00,23.9,17.1,29.30,ESE,115,2.0,3.0,75,0.00,,,0.00,0,Wunderground v.1.15,2013-02-27 08:01:00,
2013-02-26 23:06:00,23.2,17.7,29.30,NW,319,3.0,4.0,79,0.00,,,0.00,0,Wunderground v.1.15,2013-02-27 08:06:00,
2013-02-26 23:11:00,23.3,17.2,29.31,SE,130,0.0,3.0,77,0.00,,,0.00,0,Wunderground v.1.15,2013-02-27 08:11:00,
2013-02-26 23:16:00,23.2,17.7,29.30,South,181,0.0,3.0,79,0.00,,,0.00,0,Wunderground v.1.15,2013-02-27 08:16:00,
2013-02-26 23:21:00,23.1,17.6,29.30,SSE,153,0.0,0.0,79,0.00,,,0.00,0,Wunderground v.1.15,2013-02-27 08:21:00,
2013-02-26 23:26:00,22.9,16.8,29.30,ENE,75,1.0,1.0,77,0.00,,,0.00,0,Wunderground v.1.15,2013-02-27 08:26:00,
2013-02-26 23:31:00,21.9,16.4,29.30,ESE,116,1.0,2.0,79,0.00,,,0.00,0,Wunderground v.1.15,2013-02-27 08:31:00,
2013-02-26 23:36:00,21.4,16.2,29.30,SE,126,0.0,2.0,80,0.00,,,0.00,0,Wunderground v.1.15,2013-02-27 08:36:00,
2013-02-26 23:41:00,21.6,16.4,29.30,SE,126,0.0,1.0,80,0.00,,,0.00,0,Wunderground v.1.15,2013-02-27 08:41:00,
2013-02-26 23:46:00,20.9,15.7,29.29,NNE,30,1.0,2.0,80,0.00,,,0.00,0,Wunderground v.1.15,2013-02-27 08:46:00,
2013-02-26 23:51:00,20.6,15.7,29.29,NE,49,0.0,1.0,81,0.00,,,0.00,0,Wunderground v.1.15,2013-02-27 08:51:00,
2013-02-26 23:56:00,20.5,15.9,29.28,ENE,68,2.0,3.0,82,0.00,,,0.00,0,Wunderground v.1.15,2013-02-27 08:56:00,